Skip Page Navigation
NASA JPL Caltech
NASA Logo - Jet Propulsion Laboratory + View the NASA Portal
+ Near-Earth Object (NEO) Program
Search JPL
JPL Home Earth Solar System Stars & Galaxies Technology
JPL Solar System Dynamics
BODIES ORBITS EPHEMERIDES TOOLS PHYSICAL DATA DISCOVERY FAQ SITE MAP
JPL Small-Body Database Browser
Search: [ help ]  
16596 Stevenstrauss (1992 UN7)
Classification: Main-belt Asteroid          SPK-ID: 2016596
Ephemeris | Orbit Diagram | Orbital Elements | Physical Parameters | Discovery Circumstances ]

[ hide orbit diagram ]
Orbit Diagram
Note: Make sure you have Java enabled on your browser to see the applet. This applet is provided as a 3D orbit visualization tool. The applet was implemented using 2-body methods, and hence should not be used for determining accurate long-term trajectories (over several years or decades) or planetary encounter circumstances. For accurate long-term ephemerides, please instead use our Horizons system.
Orbit Viewer

Additional Notes: the orbits shown in the applet are color coded. The planets are white lines, and the asteroid/comet is a blue line. The bright white line indicates the portion of the orbit that is above the ecliptic plane, and the darker portion is below the ecliptic plane. Likewise for the asteroid/comet orbit, the light blue indicates the portion above the ecliptic plane, and the dark blue the portion below the ecliptic plane.

Orbit Viewer applet originally written and kindly provided by Osamu Ajiki (AstroArts), and further modified by Ron Baalke (JPL).


Orbital Elements at Epoch 2456400.5 (2013-Apr-18.0) TDB
Reference: MPO229169 (heliocentric ecliptic J2000)
 Element Value Uncertainty (1-sigma)   Units 
e 0.1541537 n/a  
a 2.3880612 n/a AU
q 2.0199327 n/a AU
i 2.14611 n/a deg
node 195.43184 n/a deg
peri 346.08152 n/a deg
M 53.22402 n/a deg
tp 2456201.2162963
(2012-Sep-30.71629630)
n/a JED
period 1347.9277464
3.69
n/a
n/a
d
yr
n 0.26707663 n/a deg/d
Q 2.7561897 n/a AU
  Orbit Determination Parameters
   # obs. used (total)      753  
   first obs. used      1976-??-??  
   last obs. used      2012-04-16  
   # oppositions      16  
   planetary ephem.      DE403  
   condition code      0  
   fit RMS      0.51  
   data source      MPC:mpn  
   producer      MPCLINUX  

Additional Information
 T_jup = 3.517 

Ephemeris | Orbit Diagram | Orbital Elements | Physical Parameters | Discovery Circumstances ]

Physical Parameter Table
Parameter Symbol Value Units Sigma Reference Notes
absolute magnitude H 14.6 mag n/a PDS3 (MPO 2880)  

16596 Stevenstrauss           Discovered 1992 Oct. 18 by Spacewatch at Kitt Peak.
Steven Strauss (b. 1943) graduated from the University of Colorado and moved to Canada in 1968, where he has been a science writer at the Toronto Globe & Mail. Strauss received the first Connaught medal for medical reporting in 1995. The name was suggested by P. Jedicke and R. Jedicke.
NOTE: some special characters may not display properly (any characters within {} are an attempt to place the proper accent above a character)
Reference: 20050523/MPCPages.arcLast Updated: 2005-07-21

Alternate Designations
 1992 UN7 = 1989 YP7 = 1998 KX23 = 1999 RR191 
Ephemeris | Orbit Diagram | Orbital Elements | Physical Parameters | Discovery Circumstances ]
ABOUT SSD CREDITS/AWARDS PRIVACY/COPYRIGHT GLOSSARY LINKS
FirstGov 2013-May-19 01:17 UT
(server date/time)  
NASA Home Page
Site Manager:   Donald K. Yeomans
Webmaster  Alan B. Chamberlin